1491754390.48, 0.333082731203, -1.01325864959, 0.405382691011, 0.0768004291732, 0.091140838455, -0.694495213352, 0.709557214237
1491754390.49, 0.332840853877, -1.01341397884, 0.405359316679, 0.0768710211604, 0.0911035783541, -0.694728593191, 0.709325853131
1491754390.5, 0.332601025702, -1.01357160144, 0.405370263261, 0.0769626174927, 0.0910253185749, -0.695052428137, 0.709008652294
1491754390.51, 0.332361210231, -1.01370104807, 0.405360759133, 0.0770916642778, 0.0908943256114, -0.695368840344, 0.708701116656
1491754390.52, 0.332133318517, -1.01382502544, 0.405370927706, 0.0772501881513, 0.0907757137809, -0.695682086357, 0.708391567525
1491754390.53, 0.33192447172, -1.01394706293, 0.405412168684, 0.0773919072653, 0.0907103134691, -0.695981599737, 0.70809020933
1491754390.54, 0.331725899857, -1.01405440849, 0.405444430088, 0.0774693419336, 0.0907074006479, -0.696191442987, 0.707875796478
1491754390.55, 0.331529786111, -1.01414831022, 0.405474309888, 0.0774891277195, 0.0907842317824, -0.696300273206, 0.707756729306
1491754390.56, 0.331351513065, -1.0142399987, 0.405523926386, 0.0774526793414, 0.0909439401317, -0.696351717836, 0.707689598117
1491754390.57, 0.331186218564, -1.01431516069, 0.405559491882, 0.0773692362786, 0.0911966745042, -0.696316225275, 0.70770112495
1491754390.58, 0.331023943828, -1.01437092642, 0.405598806995, 0.0772711836563, 0.0915456004046, -0.696236191137, 0.707745528685
1491754390.59, 0.330855214088, -1.01440797428, 0.405618826954, 0.077167995168, 0.0919191415434, -0.696109040035, 0.707833438261
1491754390.6, 0.330696846169, -1.01443285898, 0.405659474568, 0.0770666149955, 0.0923279203791, -0.695977323543, 0.707920798596
1491754390.61, 0.330532246953, -1.01446398371, 0.405716364697, 0.0769526180442, 0.0927832016085, -0.695878995051, 0.707970335764
1491754390.62, 0.330364751406, -1.01448030608, 0.405763657673, 0.0768767598627, 0.0932360457685, -0.695809359685, 0.707987527106
1491754390.63, 0.33046033569, -1.01457021755, 0.405720377256, 0.0768249541517, 0.0934660975391, -0.695669845999, 0.708099908486
1491754390.64, 0.330448304447, -1.01461501761, 0.405707790662, 0.0767977389499, 0.0937202343931, -0.695577275828, 0.708160206669
1491754390.65, 0.330105149844, -1.01468012844, 0.405524479385, 0.0756990077193, 0.0940472358874, -0.695705298293, 0.708109395206
1491754390.66, 0.32985977345, -1.01471063507, 0.405444956508, 0.074811207426, 0.0944652403471, -0.695810567071, 0.708044671162
1491754390.67, 0.329681159932, -1.01472172506, 0.405427352764, 0.0740675129918, 0.0948879070139, -0.695882672013, 0.707995476973
1491754390.68, 0.329535857018, -1.01471838344, 0.405428103896, 0.0734799255318, 0.0953768790462, -0.695914179545, 0.707960031495
1491754390.69, 0.329392925709, -1.01471555127, 0.405460891777, 0.0729914536441, 0.0959802426974, -0.695914425807, 0.707928776545
1491754390.7, 0.329259915923, -1.01469360118, 0.405466371544, 0.0727650472785, 0.0965025645343, -0.695884554751, 0.707910438821
1491754390.71, 0.329138922983, -1.01467663554, 0.405493597798, 0.0725901443606, 0.0970515109758, -0.695836133936, 0.707900946367
1491754390.72, 0.329025508997, -1.01466435851, 0.405523429707, 0.0724906703379, 0.097604653072, -0.695767776825, 0.707902277963
1491754390.73, 0.328914323988, -1.01464957319, 0.405544564134, 0.0725079171175, 0.0981481072876, -0.695684478171, 0.707907238149
1491754390.74, 0.328820601355, -1.01465325795, 0.405585069835, 0.0724468848871, 0.098643311424, -0.695603290564, 0.707924436743
1491754390.75, 0.328723786801, -1.01466370135, 0.405619807256, 0.0724054715928, 0.0991078949721, -0.695517124994, 0.707948445636
1491754390.76, 0.328645556006, -1.0146873946, 0.40564490649, 0.0723364714559, 0.0994978816477, -0.695422790898, 0.707993466315
1491754390.77, 0.328570759001, -1.0147194887, 0.405649416863, 0.0723094321174, 0.100002589777, -0.695290314068, 0.708055228939
1491754390.78, 0.328496994076, -1.01474723792, 0.405642452216, 0.0722689229703, 0.100342525697, -0.695160581714, 0.708138648811
1491754390.79, 0.328423461819, -1.01478259935, 0.405607798951, 0.0722825737469, 0.100808970978, -0.69501491603, 0.708213984188
1491754390.8, 0.328348257279, -1.0148077322, 0.405555158997, 0.0723648568807, 0.101303127439, -0.694867393269, 0.708279824386
1491754390.81, 0.328273478318, -1.01484610148, 0.405486851997, 0.0725007719084, 0.101816947665, -0.694726569675, 0.708330389457
1491754390.82, 0.328194390196, -1.0148651623, 0.405377619829, 0.0727124883319, 0.102259431249, -0.694625047955, 0.708344510471
1491754390.83, 0.328122171353, -1.01490155508, 0.405271820921, 0.0729283440724, 0.102684976237, -0.694553366748, 0.708331047622
1491754390.84, 0.328051515281, -1.01494831068, 0.405127869982, 0.0732683362843, 0.103183029515, -0.69450312415, 0.708272845636
1491754390.85, 0.327989492979, -1.01501999694, 0.4049871276, 0.0736604259829, 0.103709047515, -0.694475224822, 0.708182700449
1491754390.86, 0.327663136211, -1.01501487415, 0.404967817094, 0.0736002252168, 0.103913929662, -0.694682100811, 0.707955987956
1491754390.87, 0.327480100655, -1.01506993676, 0.404881363703, 0.0736322397799, 0.104140249923, -0.694857139886, 0.707747593963
1491754390.88, 0.327383296184, -1.0151590825, 0.404758450905, 0.0737149762296, 0.10430768165, -0.69500621935, 0.707567922459
1491754390.89, 0.327326558625, -1.01526373527, 0.404600699407, 0.0738286071502, 0.104375967299, -0.695128942623, 0.70742543589
1491754390.9, 0.327556066634, -1.01546355017, 0.404301353686, 0.0744391914389, 0.104573304615, -0.695038283206, 0.707421384761
1491754390.91, 0.327675620615, -1.01564559763, 0.404042208293, 0.0749656825161, 0.104629918311, -0.694947716841, 0.707446391959
1491754390.92, 0.327730781977, -1.0158363859, 0.403816755264, 0.0754910539977, 0.104693403613, -0.694846621669, 0.707480433908
1491754390.93, 0.327775820143, -1.01603390308, 0.403596917533, 0.0759681245373, 0.104694162843, -0.694743287591, 0.707530734787
1491754390.94, 0.327805214062, -1.01623848413, 0.403373296428, 0.07646654862, 0.104731132705, -0.694626843277, 0.70758589965
1491754390.95, 0.327836894412, -1.01646678521, 0.40316297045, 0.0769751359108, 0.10482443495, -0.69447855181, 0.707662495378
1491754390.96, 0.327606488647, -1.01663626678, 0.403065647633, 0.077181459899, 0.104983076269, -0.694461350848, 0.707633385393
1491754390.97, 0.327521942327, -1.01685827167, 0.402924394761, 0.0774087832256, 0.10521355008, -0.694372518926, 0.707661496846
1491754390.98, 0.327513441397, -1.01711213873, 0.40275450406, 0.0776389500836, 0.105519531942, -0.694198657588, 0.707761291405
1491754390.99, 0.32754961031, -1.01738471244, 0.402588260014, 0.0778522860097, 0.105892187766, -0.693950758253, 0.707925286491
1491754391.0, 0.327606595168, -1.01768170369, 0.402443031955, 0.0780682011215, 0.10636358867, -0.693630143585, 0.708145018262
1491754391.01, 0.32768010419, -1.01797390122, 0.402290067898, 0.0782285671328, 0.10686055259, -0.693306499338, 0.70836940332
1491754391.02, 0.32776411356, -1.01829190539, 0.402167644374, 0.0783810092878, 0.107448366566, -0.69295855725, 0.708604052937
1491754391.03, 0.327846945386, -1.01861868364, 0.40205865582, 0.0785288597408, 0.108053728788, -0.692623305361, 0.70882336781
1491754391.04, 0.327921148385, -1.01896209332, 0.401978956414, 0.0786617116934, 0.108748511404, -0.692294305114, 0.709023759466
1491754391.05, 0.327987703966, -1.019300356, 0.401909434332, 0.0787470296804, 0.10932675847, -0.692064969466, 0.709149239044
1491754391.06, 0.328038874845, -1.01965913873, 0.401865699657, 0.0788415267541, 0.109863843583, -0.691881634435, 0.709234625117
1491754391.07, 0.328081482357, -1.02002827126, 0.401839508724, 0.0789324912293, 0.110322634437, -0.69176819071, 0.709263948386
1491754391.08, 0.328114202479, -1.02041396737, 0.401831665006, 0.0790180246352, 0.110682966801, -0.691729219488, 0.70923629317
1491754391.09, 0.32813400569, -1.0208303452, 0.401833284934, 0.0791306247945, 0.110970524622, -0.691759797877, 0.709148975128
1491754391.1, 0.328150395876, -1.0212626617, 0.401833782344, 0.0792134132106, 0.111182125954, -0.691850091019, 0.709018491714
1491754391.11, 0.328182963501, -1.02171110542, 0.401846260403, 0.0792632492898, 0.111333810296, -0.691978243437, 0.7088640424
1491754391.12, 0.328208524877, -1.02217142197, 0.401847171513, 0.0792961116202, 0.111451038264, -0.692106449857, 0.708716766289
1491754391.13, 0.328248097507, -1.02262118247, 0.401832345235, 0.0793180212523, 0.11149628539, -0.692223058738, 0.708593301408
1491754391.14, 0.328290197604, -1.02311802442, 0.401827684658, 0.079404493004, 0.111645236693, -0.69230895057, 0.708476241363
1491754391.15, 0.328318551258, -1.02358398, 0.401789227908, 0.0794756192378, 0.111696616674, -0.692392936019, 0.708378086845
1491754391.16, 0.328346969587, -1.0241021597, 0.401769638591, 0.079596051044, 0.111836653921, -0.692487182273, 0.708250332782
1491754391.17, 0.328362802087, -1.02461937956, 0.401746722, 0.079754276751, 0.111978790246, -0.692610088599, 0.708089874978
1491754391.18, 0.328375802074, -1.02510976356, 0.401714560436, 0.0799397382106, 0.112102970768, -0.692757682963, 0.707904905263
1491754391.19, 0.328379657295, -1.02560036134, 0.401694800101, 0.0801387553024, 0.112195101785, -0.692943739616, 0.7076856737
1491754391.2, 0.328371978842, -1.02608971358, 0.401683281371, 0.080389658862, 0.112319222454, -0.693153739733, 0.707431825768
1491754391.21, 0.32834111974, -1.02658403369, 0.401697166486, 0.0806251514775, 0.112547106104, -0.693392347362, 0.707134913914
1491754391.22, 0.328596348254, -1.02709154344, 0.401536235961, 0.081066203057, 0.112216512838, -0.693544411755, 0.70698788808
1491754391.23, 0.328742573923, -1.02759636035, 0.401435010392, 0.0814622614495, 0.1119690081, -0.693743280231, 0.706786461613
1491754391.24, 0.328852552714, -1.02808744876, 0.401350586816, 0.0817690677579, 0.111831874908, -0.693927696567, 0.706591680711
1491754391.25, 0.328945458574, -1.02857666752, 0.401263467421, 0.0820509362931, 0.111811663523, -0.69410042201, 0.706392525385
1491754391.26, 0.329038139317, -1.02904960508, 0.401156437473, 0.0822135330251, 0.111900711305, -0.694215259033, 0.706246656575
1491754391.27, 0.32915499786, -1.02954466373, 0.401051770254, 0.0823299307208, 0.112090926648, -0.694299899204, 0.706119718345
1491754391.28, 0.329289846112, -1.03003648707, 0.400934718123, 0.0823845672549, 0.11238240647, -0.694334821752, 0.706032671409
1491754391.29, 0.329435638891, -1.03055243716, 0.400815988677, 0.0824575214077, 0.112766273909, -0.694362369371, 0.705935850226
1491754391.3, 0.329599083743, -1.03104175256, 0.400692889142, 0.0824653060367, 0.113154649175, -0.694365154122, 0.70587005278
1491754391.31, 0.329767010715, -1.03155119748, 0.400568866901, 0.0824481357375, 0.113507402426, -0.694369633472, 0.705811013388
1491754391.32, 0.329938329047, -1.03205382695, 0.400447285233, 0.0824599827595, 0.113817661582, -0.694333822678, 0.705794895023
1491754391.33, 0.330118737102, -1.03255294713, 0.400320118075, 0.0824876587096, 0.114064608958, -0.694241812917, 0.705842302743
1491754391.34, 0.330314616022, -1.03308087965, 0.400180197154, 0.082602545977, 0.114341473737, -0.694111075417, 0.705912644571
1491754391.35, 0.330521843446, -1.03359000784, 0.400027466015, 0.0827712425371, 0.114520203773, -0.693930043249, 0.706041882194
1491754391.36, 0.330747633933, -1.0341246537, 0.399870052752, 0.0830410662407, 0.114678053922, -0.693710576028, 0.706200227962
1491754391.37, 0.33097917578, -1.03463351672, 0.399701704592, 0.0833308345565, 0.114707838926, -0.693481001419, 0.706386710217
1491754391.38, 0.331226636508, -1.03516587054, 0.39952059412, 0.0836887851004, 0.114701408495, -0.693249888354, 0.706572265544
1491754391.39, 0.331474490432, -1.03570346681, 0.399333593054, 0.0841397993912, 0.114663268457, -0.693045736795, 0.706725148651
1491754391.4, 0.33173242123, -1.03625406634, 0.399125104875, 0.0846417247071, 0.114524907702, -0.692875814811, 0.706854248912
1491754391.41, 0.332000915478, -1.03683696443, 0.398905952044, 0.0852355481851, 0.114319424592, -0.692735879873, 0.70695330201
1491754391.42, 0.332280985553, -1.0374447762, 0.398689930282, 0.0859111650389, 0.114081135107, -0.692649844793, 0.706994313162
1491754391.43, 0.332545610773, -1.03800254259, 0.39845282597, 0.0864768324447, 0.113878820999, -0.692622536677, 0.706984719259
1491754391.44, 0.333102429299, -1.03858341097, 0.398407233858, 0.0880911414727, 0.113582762667, -0.692285528843, 0.707163102385
1491754391.45, 0.333508595355, -1.03914974063, 0.398268051538, 0.0893630582261, 0.113434491662, -0.692023531735, 0.707283741826
1491754391.46, 0.333867769906, -1.03984722572, 0.398069630489, 0.0908336561968, 0.113369086558, -0.691701468961, 0.707421921453
1491754391.47, 0.334198257053, -1.04052401782, 0.397827488871, 0.0917281430232, 0.113467167665, -0.691487578104, 0.707499879129
1491754391.48, 0.334531934407, -1.04130866201, 0.397584745479, 0.0926937911922, 0.113680874962, -0.691222595314, 0.707598645751
1491754391.49, 0.334597407756, -1.04217569564, 0.397162775039, 0.0927193630185, 0.114162513751, -0.691209924525, 0.707530126859
1491754391.5, 0.334806014801, -1.04302570924, 0.396828864257, 0.0927402058191, 0.114725507727, -0.691153710789, 0.707491243878
1491754391.51, 0.335081249301, -1.04387322264, 0.396526758662, 0.0928030499462, 0.11534846156, -0.691075981835, 0.707457640899
1491754391.52, 0.335666513124, -1.04469424083, 0.396406840374, 0.0938192495413, 0.115976537987, -0.690744405178, 0.707544739057
1491754391.53, 0.336092107249, -1.04550100027, 0.396208882314, 0.0947282818487, 0.116653510966, -0.690500243824, 0.707550651385
1491754391.54, 0.336459549563, -1.0463687562, 0.395974060144, 0.0956913511995, 0.117404736237, -0.690318107888, 0.707474524727
1491754391.55, 0.336817503213, -1.04728739639, 0.395722437631, 0.0966325054329, 0.118160166148, -0.690242361023, 0.707294717271
1491754391.56, 0.337177606121, -1.04822131052, 0.395453871867, 0.0974460647946, 0.118856677569, -0.690305808582, 0.707004416741
1491754391.57, 0.337516508431, -1.04916410787, 0.395192991399, 0.098151851782, 0.119455376989, -0.690453282441, 0.706661794402
1491754391.58, 0.337872530811, -1.05014622736, 0.394938737131, 0.0988728471845, 0.120108084166, -0.690602542458, 0.706304705179
1491754391.59, 0.338265921356, -1.05117808757, 0.394674787652, 0.0995960928135, 0.120877608488, -0.690693674366, 0.705982627444
1491754391.6, 0.338667415221, -1.05220347642, 0.394422254995, 0.100114263332, 0.121610447505, -0.690724795476, 0.705752995211
1491754391.61, 0.339106767719, -1.0532978269, 0.394182879012, 0.100578695797, 0.122381048566, -0.690723079281, 0.705555407216
1491754391.62, 0.339575865834, -1.05441034086, 0.393985540927, 0.100820971527, 0.12308649633, -0.690705013531, 0.70541578548
1491754391.63, 0.340050033259, -1.05558854203, 0.393791172448, 0.101055471749, 0.1238265774, -0.690710607818, 0.70524720957
1491754391.64, 0.340513776746, -1.05674350094, 0.393611091146, 0.101180156865, 0.124471171733, -0.690704954357, 0.70512138621
1491754391.65, 0.340985911843, -1.05786806787, 0.393451118589, 0.101217468169, 0.125031881557, -0.69063902733, 0.70508140428
1491754391.66, 0.34151302262, -1.05907368163, 0.393311705461, 0.101178872766, 0.125607956457, -0.690587346222, 0.705035172327
1491754391.67, 0.34204825408, -1.06023090772, 0.39318743237, 0.100978112383, 0.125940339561, -0.690584403706, 0.705007541129
1491754391.68, 0.342576981959, -1.06140118183, 0.393045323809, 0.100728088956, 0.12614055807, -0.690611579787, 0.704980891634
1491754391.69, 0.343128144213, -1.06263140028, 0.392894921847, 0.100540958221, 0.126354349312, -0.690600058945, 0.704980604495
1491754391.7, 0.343673977758, -1.06381768145, 0.392753178902, 0.100400936991, 0.12659022696, -0.690510332836, 0.705046130786
1491754391.71, 0.344266379704, -1.06506363939, 0.392611637816, 0.100295677952, 0.126903899156, -0.690377817015, 0.705134488687
1491754391.72, 0.344904049426, -1.06633434652, 0.392434631196, 0.100194553865, 0.127170908505, -0.690192381607, 0.705282275247
1491754391.73, 0.345391658586, -1.06752487067, 0.392187383969, 0.0998353094194, 0.12735100447, -0.690050855766, 0.705439188811
1491754391.74, 0.346039682657, -1.06876805134, 0.392013785676, 0.0997915163399, 0.127546068475, -0.689848908681, 0.705607636633
1491754391.75, 0.346664956697, -1.07003371863, 0.391830113399, 0.099832661725, 0.127768659058, -0.689664197905, 0.705742094213
1491754391.76, 0.347293702048, -1.07131216762, 0.391623256309, 0.0999234294627, 0.127945552346, -0.689492008371, 0.705865436377
1491754391.77, 0.347936325879, -1.07261464179, 0.391379320103, 0.100020260035, 0.128066397399, -0.689379283951, 0.705939904169
1491754391.78, 0.348579930989, -1.07388775204, 0.391107818703, 0.100052287143, 0.128131935644, -0.689319434432, 0.705981914938
1491754391.79, 0.349236587911, -1.07514751014, 0.3908236075, 0.100110836911, 0.128300586426, -0.689239226009, 0.706021295137
1491754391.8, 0.349946706685, -1.07652986161, 0.39051467992, 0.100250771842, 0.128651858137, -0.689072620332, 0.706100138827
1491754391.81, 0.350630303019, -1.07779004802, 0.39020395983, 0.100297978554, 0.128922385461, -0.688924433818, 0.706188684781
1491754391.82, 0.351079291251, -1.07915091185, 0.389719141891, 0.0994176066262, 0.129390802666, -0.688877862409, 0.706272929087
1491754391.83, 0.351926909335, -1.0805361163, 0.389516336973, 0.0994337825029, 0.129697517657, -0.688594491665, 0.706490695522
1491754391.84, 0.352649144768, -1.08180644056, 0.389243102882, 0.0994999216293, 0.129977796357, -0.688366941909, 0.706651605345
1491754391.85, 0.353426062754, -1.08325256309, 0.388927591469, 0.0996482183073, 0.130396674989, -0.688067696924, 0.706844950601
1491754391.86, 0.35418132888, -1.08461228655, 0.388584498508, 0.0997723463666, 0.130715079044, -0.687808795738, 0.707020584931
1491754391.87, 0.354912827864, -1.08599466447, 0.38821883162, 0.099905689729, 0.131036846202, -0.687601626577, 0.707143692064
1491754391.88, 0.355638681957, -1.08745574211, 0.387795305245, 0.100183608666, 0.13144211462, -0.687410847364, 0.707214636433
1491754391.89, 0.356360182188, -1.08884503581, 0.38736560566, 0.100492618399, 0.131744889703, -0.68730993743, 0.707212533539
1491754391.9, 0.357105641899, -1.0902898872, 0.38696398865, 0.100759422552, 0.13194628738, -0.687243579477, 0.707201511934
1491754391.91, 0.3578273304, -1.09171020268, 0.386561101676, 0.101009817752, 0.132009658515, -0.687227660799, 0.707169434442
1491754391.92, 0.358512172988, -1.09319847466, 0.386122818353, 0.101436798049, 0.132117390595, -0.687233576268, 0.7070824441
1491754391.93, 0.359232134055, -1.09474272505, 0.385671874742, 0.102095331336, 0.132317331122, -0.687208397318, 0.706974742023
1491754391.94, 0.359955238905, -1.09625409815, 0.38523766198, 0.10276606997, 0.132477955259, -0.687181023462, 0.706874081592
1491754391.95, 0.360723008189, -1.09776867953, 0.384808795933, 0.103372110196, 0.132510639675, -0.687131442192, 0.706827785502
1491754391.96, 0.361442222451, -1.09931388075, 0.384370091793, 0.104055528261, 0.132619869036, -0.687062040339, 0.706774483198
1491754391.97, 0.362113371765, -1.10076402844, 0.383954308947, 0.104637194217, 0.132721392277, -0.687012117163, 0.706718077093
1491754391.98, 0.362863506535, -1.10233758974, 0.383531366196, 0.105348933323, 0.132821134485, -0.6869162555, 0.70668678098
1491754391.99, 0.363633966098, -1.10390208486, 0.383121363171, 0.106013067615, 0.132864275088, -0.686826435756, 0.706666654829
1491754392.0, 0.364421866766, -1.10545511049, 0.382704928646, 0.106687595296, 0.132940168673, -0.686725664488, 0.706648802657
1491754392.01, 0.365216526016, -1.1070824622, 0.382279215394, 0.107492705099, 0.133079751293, -0.686644075962, 0.706579798107
1491754392.02, 0.366219308267, -1.10865123859, 0.381634442044, 0.108862921997, 0.13364486897, -0.6863570455, 0.706542227545
1491754392.03, 0.367115039495, -1.11030840948, 0.381128616726, 0.110232594447, 0.134247175418, -0.686102159199, 0.706463231991
1491754392.04, 0.367694929457, -1.11189028617, 0.380990107212, 0.110516591965, 0.134111982073, -0.686232809629, 0.70631762696
1491754392.05, 0.368364126457, -1.11343601899, 0.380764183348, 0.110757909165, 0.133961974167, -0.686432477785, 0.706114246052
1491754392.06, 0.369163210785, -1.11506553556, 0.380492292878, 0.111025679195, 0.133771547571, -0.686693515976, 0.705854437357
1491754392.07, 0.370041368057, -1.11678621861, 0.380146504864, 0.111430808682, 0.133638836256, -0.686986453397, 0.705530615331
1491754392.08, 0.371089035401, -1.11837059338, 0.379579395508, 0.112472758781, 0.134038091437, -0.68701781106, 0.705258956598
1491754392.09, 0.372108729557, -1.12007480318, 0.379113916075, 0.113506642849, 0.134268212779, -0.687220844743, 0.704851615319
1491754392.1, 0.373082387125, -1.12170729969, 0.37874947187, 0.114452116106, 0.134463631592, -0.6874947982, 0.704394170437
1491754392.11, 0.374088342125, -1.12345849433, 0.378418709201, 0.115556818948, 0.134625381011, -0.687821770297, 0.703863509985
1491754392.12, 0.37511121059, -1.12510580733, 0.378127692352, 0.116415910299, 0.134514162213, -0.688115271727, 0.703456216697
1491754392.13, 0.376182894197, -1.12682565826, 0.377873320759, 0.117334029878, 0.134197012208, -0.688528446178, 0.702959789854
1491754392.14, 0.37735124865, -1.12858143333, 0.377602453027, 0.118316667821, 0.133707481996, -0.688925534169, 0.702499169924
1491754392.15, 0.378511385121, -1.13022854219, 0.377367188182, 0.11910201682, 0.133075411688, -0.689297610982, 0.702121391134
1491754392.16, 0.379726660295, -1.13195398504, 0.377143097224, 0.11987633619, 0.132134138589, -0.68977904665, 0.701694449346
1491754392.17, 0.38097299677, -1.13371248899, 0.376918071304, 0.120801171862, 0.13111187566, -0.690265424421, 0.701249168831
1491754392.18, 0.382230996329, -1.13536969017, 0.376676471952, 0.12156509158, 0.130104068632, -0.690713582867, 0.700863471924
1491754392.19, 0.383615084159, -1.13708308154, 0.376387741785, 0.122399619049, 0.12893665671, -0.69118730517, 0.700466830752
1491754392.2, 0.38507962167, -1.13882864272, 0.376060955482, 0.123487307725, 0.127733930665, -0.69165867069, 0.700030864353
1491754392.21, 0.386561009357, -1.14046914054, 0.375739188214, 0.124508679213, 0.126787737306, -0.691980169665, 0.699704154097
1491754392.22, 0.388037732997, -1.14205867897, 0.375409168465, 0.125368760548, 0.125970305921, -0.692256466658, 0.699424863924
1491754392.23, 0.389621134944, -1.14374922743, 0.375073518309, 0.12639767529, 0.12516927066, -0.692513308451, 0.699129171886
1491754392.24, 0.391347053082, -1.14550473679, 0.374708914227, 0.127509472733, 0.124370159512, -0.692703983842, 0.698880954495
1491754392.25, 0.393015840445, -1.14706613724, 0.374358103712, 0.12837344691, 0.123871244227, -0.692741637351, 0.698774067108
1491754392.26, 0.394717472312, -1.14866983059, 0.374044723042, 0.129209173743, 0.12348400138, -0.69271244905, 0.698717506403
1491754392.27, 0.396469400467, -1.15033383259, 0.373729219642, 0.130101850823, 0.123211207818, -0.692655073446, 0.698656894269
1491754392.28, 0.398298445008, -1.15202130229, 0.373390307835, 0.131027170464, 0.122923351557, -0.69264816209, 0.69854151902
1491754392.29, 0.399818132796, -1.15339279037, 0.37331141132, 0.131143874941, 0.122674806769, -0.692828937949, 0.698384019426
1491754392.3, 0.401801172094, -1.15498148532, 0.372918434991, 0.132196671971, 0.122842063593, -0.69278013859, 0.698204516533
1491754392.31, 0.403763443224, -1.15650602059, 0.372605252139, 0.133176375953, 0.122954851343, -0.692846234209, 0.697932842873
1491754392.32, 0.405697857202, -1.15797531555, 0.372357759469, 0.134282396902, 0.123067125745, -0.692961325039, 0.697586784883
1491754392.33, 0.407617226456, -1.15947565757, 0.372115202655, 0.135570475716, 0.123251565913, -0.693118721709, 0.697148574717
1491754392.34, 0.409426467288, -1.16085124141, 0.371915184853, 0.136746368547, 0.123377971254, -0.693349809931, 0.696666597424
1491754392.35, 0.411299076252, -1.16229812449, 0.371736040642, 0.138023912377, 0.123280267278, -0.693683756343, 0.696099289971
1491754392.36, 0.413207139315, -1.16371432802, 0.371563736101, 0.139347608176, 0.123029884298, -0.694108191922, 0.695456475685